Home   Weather   Scottsdale   Past weeks
Flag for USA

Past Weather in Scottsdale, Arizona, USA — November 2018

Now
77 °F

Sunny.


Feels Like: 77 °F
Forecast: 78 / 54 °F
Wind: 3 mph from East

Location: Scottsdale Airport

Current Time: Nov 14, 2019 at 2:36:21 pm

Latest Report: Nov 14, 2019 at 12:53 pm


Visibility: 10 mi

Pressure: 30.04 "Hg

Humidity: 20%

Dew Point: 33 °F

Location of ScottsdaleLocation

November 2018 Weather in Scottsdale — Graph

°F

High & Low Weather Summary for November 2018

 TemperatureHumidityPressure
High81 °F (Nov 6, 2:53 pm)97% (Nov 30, 6:53 am)30.49 "Hg (Nov 30, 6:53 am)
Low45 °F (Nov 16, 3:53 am)6% (Nov 11, 5:53 pm)29.69 "Hg (Nov 29, 8:53 pm)
Average61 °F37%29.99 "Hg
* Reported Nov 1 12:53 am — Nov 30 11:53 pm, Scottsdale. Weather by CustomWeather, © 2019

Note: Actual official high and low records may vary slightly from our data, if they occured in-between our weather recording intervals... More about our weather records

Advertising

Scottsdale Weather History for November 1, 2018

Scroll right to see more
 ConditionsComfort  
Time TempWeatherWind HumidityBarometerVisibility
12:53 am
Thu, Nov 1
57 °FClear.No wind51%29.99 "Hg10 mi
1:53 am58 °FClear.No wind47%29.98 "Hg10 mi
2:53 am57 °FClear.3 mph46%29.98 "Hg10 mi
3:53 am55 °FClear.No wind49%29.98 "Hg10 mi
4:53 am53 °FClear.No wind56%29.99 "Hg10 mi
5:53 am52 °FClear.No wind64%30.00 "Hg10 mi
6:53 am52 °FSunny.No wind57%30.01 "Hg10 mi
7:53 am54 °FSunny.No wind47%30.04 "Hg10 mi
8:53 am57 °FSunny.No wind42%30.06 "Hg10 mi
9:53 am63 °FSunny.6 mph31%30.06 "Hg10 mi
10:53 am66 °FSunny.No wind27%30.07 "Hg10 mi
11:53 am70 °FSunny.No wind19%30.05 "Hg10 mi
12:53 pm72 °FSunny.No wind16%30.01 "Hg10 mi
1:53 pm75 °FSunny.6 mph16%29.98 "Hg10 mi
2:53 pm75 °FSunny.No wind15%29.97 "Hg10 mi
3:53 pm75 °FSunny.5 mph15%29.97 "Hg10 mi
4:53 pm75 °FSunny.5 mph15%29.97 "Hg10 mi
5:53 pm72 °FClear.3 mph19%29.98 "Hg10 mi
6:53 pm70 °FClear.No wind23%30.01 "Hg10 mi
7:53 pm67 °FClear.3 mph30%30.02 "Hg10 mi
8:53 pm63 °FClear.3 mph37%30.03 "Hg10 mi
9:53 pm63 °FClear.5 mph34%30.03 "Hg10 mi
10:53 pm60 °FClear.No wind44%30.03 "Hg10 mi
11:53 pm58 °FClear.No wind50%30.04 "Hg10 mi
Weather by CustomWeather, © 2019

See weather overview